User: anonymous
Location: Mactaquac Provincial Park
(45.9573°N, 66.8897°W)
Time: 00:45:10
(UTC-03:00)
Language:

Cosmos 1766 - Orbit

View from above orbital plane
View from above orbital plane
View from above satellite
View from above satellite

Ground track
Ground track

The orbit data is extracted from the following two-line orbital elements,

1 16881U 86055A   14212.77784159  .00002025  00000-0  13778-3 0  9220
2 16881 082.5118 329.7111 0014082 071.0914 289.1838 15.05717155522917
Epoch (UTC): 31 July 2014 18:40:05
Eccentricity: 0.0014082
inclination: 82.5118°
perigee height: 539 km
apogee height: 559 km
right ascension of ascending node: 329.7111°
argument of perigee: 71.0914°
revolutions per day: 15.05717155
mean anomaly at epoch: 289.1838°
orbit number at epoch: 52291

The dashed part of the orbit path shows where the satellite is in the earth's shadow,  

DLR